TimeCDT,TemperatureF,Dew PointF,Humidity,Sea Level PressureIn,VisibilityMPH,Wind Direction,Wind SpeedMPH,Gust SpeedMPH,PrecipitationIn,Events,Conditions,WindDirDegrees,DateUTC
12:04 AM,68.0,68.0,100,30.10,9.0,North,13.8,-,N/A,,Overcast,350,2013-09-16 05:04:00
12:09 AM,68.0,68.0,100,30.11,8.0,North,12.7,-,N/A,,Overcast,350,2013-09-16 05:09:00
12:44 AM,68.0,68.0,100,30.10,9.0,North,15.0,-,N/A,,Overcast,10,2013-09-16 05:44:00
12:58 AM,67.5,67.5,100,30.07,10.0,NE,13.8,-,N/A,,Overcast,40,2013-09-16 05:58:00
1:03 AM,68.0,68.0,100,30.10,10.0,NE,16.1,-,N/A,,Overcast,40,2013-09-16 06:03:00
1:58 AM,66.9,66.9,100,30.09,10.0,NE,12.7,-,N/A,,Overcast,50,2013-09-16 06:58:00
2:55 AM,66.2,66.2,100,30.11,10.0,NE,12.7,-,N/A,,Overcast,50,2013-09-16 07:55:00
2:58 AM,66.9,66.9,100,30.09,10.0,NE,11.5,-,N/A,,Overcast,50,2013-09-16 07:58:00
3:18 AM,66.2,66.2,100,30.12,10.0,NE,11.5,-,N/A,,Overcast,50,2013-09-16 08:18:00
3:25 AM,66.2,66.2,100,30.13,9.0,NE,11.5,-,N/A,,Light Drizzle,50,2013-09-16 08:25:00
3:35 AM,66.2,66.2,100,30.13,5.0,NE,11.5,-,N/A,,Light Drizzle,50,2013-09-16 08:35:00
3:40 AM,66.2,66.2,100,30.14,4.0,NE,12.7,-,N/A,Rain,Rain,50,2013-09-16 08:40:00
3:45 AM,66.2,66.2,100,30.13,6.0,NE,12.7,-,N/A,Rain,Light Rain,40,2013-09-16 08:45:00
3:50 AM,66.2,66.2,100,30.13,7.0,NE,13.8,-,N/A,Rain,Light Rain,50,2013-09-16 08:50:00
3:57 AM,66.2,66.2,100,30.13,7.0,NE,11.5,-,N/A,,Overcast,40,2013-09-16 08:57:00
3:58 AM,66.2,66.2,100,30.10,7.0,NE,12.7,-,0.01,,Overcast,40,2013-09-16 08:58:00
4:13 AM,66.2,66.2,100,30.13,7.0,ENE,10.4,-,N/A,,Overcast,60,2013-09-16 09:13:00
4:33 AM,66.2,66.2,100,30.14,6.0,ENE,10.4,-,N/A,,Overcast,60,2013-09-16 09:33:00
4:48 AM,66.2,66.2,100,30.14,7.0,ENE,10.4,-,N/A,,Overcast,70,2013-09-16 09:48:00
4:58 AM,65.8,65.8,100,30.11,6.0,ENE,11.5,-,0.00,,Overcast,70,2013-09-16 09:58:00
5:08 AM,66.2,66.2,100,30.14,6.0,ENE,10.4,-,N/A,,Overcast,60,2013-09-16 10:08:00
5:48 AM,66.2,66.2,100,30.16,5.0,ENE,6.9,-,N/A,,Overcast,60,2013-09-16 10:48:00
5:53 AM,66.2,66.2,100,30.16,5.0,NE,5.8,-,N/A,,Overcast,50,2013-09-16 10:53:00
5:58 AM,65.8,65.8,100,30.13,5.0,NE,9.2,-,N/A,,Overcast,50,2013-09-16 10:58:00
6:18 AM,66.2,66.2,100,30.16,4.0,NE,10.4,-,N/A,,Overcast,50,2013-09-16 11:18:00
6:19 AM,66.2,66.2,100,30.16,4.0,NE,10.4,-,N/A,Rain,Light Rain,50,2013-09-16 11:19:00
6:29 AM,66.2,66.2,100,30.16,4.0,NE,10.4,-,N/A,Rain,Light Rain,50,2013-09-16 11:29:00
6:58 AM,65.7,65.7,100,30.17,3.0,NE,6.9,-,0.00,,Light Drizzle,50,2013-09-16 11:58:00
6:59 AM,66.2,66.2,100,30.18,4.0,NE,6.9,-,N/A,,Overcast,40,2013-09-16 11:59:00
7:24 AM,66.2,66.2,100,30.20,2.5,ENE,5.8,-,N/A,,Overcast,60,2013-09-16 12:24:00
7:29 AM,66.2,66.2,100,30.20,2.0,ENE,5.8,-,N/A,,Overcast,60,2013-09-16 12:29:00
7:34 AM,66.2,66.2,100,30.20,1.8,ENE,4.6,-,N/A,,Overcast,60,2013-09-16 12:34:00
7:47 AM,66.2,66.2,100,30.20,1.2,ENE,5.8,-,N/A,Rain,Light Rain,70,2013-09-16 12:47:00
7:52 AM,66.2,66.2,100,30.20,1.5,ENE,5.8,-,N/A,Rain,Light Rain,70,2013-09-16 12:52:00
7:58 AM,66.0,66.0,100,30.18,1.5,ENE,6.9,-,0.00,Rain,Light Rain,70,2013-09-16 12:58:00
8:03 AM,66.2,66.2,100,30.20,1.5,ENE,6.9,-,N/A,,Overcast,70,2013-09-16 13:03:00
8:18 AM,66.2,66.2,100,30.20,2.0,ENE,5.8,-,N/A,,Overcast,70,2013-09-16 13:18:00
8:33 AM,66.2,66.2,100,30.19,2.5,ENE,9.2,-,N/A,,Overcast,70,2013-09-16 13:33:00
8:48 AM,66.2,66.2,100,30.19,3.0,ENE,9.2,-,N/A,,Overcast,70,2013-09-16 13:48:00
8:54 AM,66.2,66.2,100,30.19,4.0,ENE,9.2,-,N/A,Rain,Light Rain,70,2013-09-16 13:54:00
8:58 AM,66.2,66.2,100,30.17,4.0,ENE,10.4,-,0.00,,Light Drizzle,60,2013-09-16 13:58:00
9:07 AM,66.2,66.2,100,30.18,4.0,ENE,12.7,-,N/A,,Overcast,70,2013-09-16 14:07:00
9:11 AM,66.2,66.2,100,30.18,4.0,ENE,9.2,-,N/A,Rain,Light Rain,70,2013-09-16 14:11:00
9:31 AM,66.2,66.2,100,30.18,6.0,NE,8.1,-,N/A,,Overcast,50,2013-09-16 14:31:00
9:35 AM,66.2,66.2,100,30.18,7.0,NE,10.4,-,N/A,,Light Drizzle,50,2013-09-16 14:35:00
9:40 AM,66.2,66.2,100,30.18,6.0,ENE,10.4,-,N/A,,Light Drizzle,60,2013-09-16 14:40:00
9:46 AM,66.2,66.2,100,30.18,7.0,East,11.5,-,N/A,,Overcast,80,2013-09-16 14:46:00
9:49 AM,66.2,66.2,100,30.18,7.0,East,9.2,-,N/A,,Light Drizzle,80,2013-09-16 14:49:00
9:54 AM,66.2,66.2,100,30.18,7.0,East,9.2,-,N/A,,Light Drizzle,80,2013-09-16 14:54:00
9:58 AM,66.9,66.9,100,30.17,8.0,East,9.2,-,0.01,,Light Drizzle,90,2013-09-16 14:58:00
10:02 AM,68.0,68.0,100,30.18,8.0,East,10.4,-,N/A,,Overcast,90,2013-09-16 15:02:00
10:07 AM,68.0,68.0,100,30.18,9.0,East,10.4,-,N/A,,Light Drizzle,90,2013-09-16 15:07:00
10:16 AM,68.0,68.0,100,30.19,9.0,East,10.4,-,N/A,,Overcast,100,2013-09-16 15:16:00
10:41 AM,68.0,68.0,100,30.19,9.0,East,10.4,-,N/A,,Overcast,100,2013-09-16 15:41:00
10:58 AM,67.8,67.8,100,30.17,8.0,East,10.4,-,0.00,,Overcast,90,2013-09-16 15:58:00
11:08 AM,68.0,68.0,100,30.19,7.0,East,8.1,-,N/A,,Overcast,90,2013-09-16 16:08:00
11:38 AM,69.8,69.8,100,30.18,9.0,East,8.1,-,N/A,,Overcast,80,2013-09-16 16:38:00
11:58 AM,69.4,69.4,100,30.17,10.0,East,6.9,-,N/A,,Overcast,90,2013-09-16 16:58:00
12:18 PM,69.8,69.8,100,30.18,10.0,ESE,6.9,-,N/A,,Overcast,110,2013-09-16 17:18:00
12:41 PM,71.6,71.6,100,30.19,10.0,East,5.8,-,N/A,,Overcast,90,2013-09-16 17:41:00
12:46 PM,71.6,71.6,100,30.19,10.0,East,4.6,-,N/A,,Overcast,100,2013-09-16 17:46:00
12:58 PM,71.2,71.2,100,30.17,10.0,SE,4.6,-,N/A,,Overcast,130,2013-09-16 17:58:00
1:03 PM,71.6,71.6,100,30.19,10.0,SSE,8.1,-,N/A,,Overcast,150,2013-09-16 18:03:00
1:08 PM,71.6,71.6,100,30.19,10.0,SE,5.8,-,N/A,,Overcast,140,2013-09-16 18:08:00
1:13 PM,71.6,71.6,100,30.19,10.0,SE,5.8,-,N/A,,Overcast,130,2013-09-16 18:13:00
1:38 PM,71.6,71.6,100,30.19,10.0,SE,5.8,-,N/A,,Overcast,130,2013-09-16 18:38:00
1:58 PM,72.7,72.0,98,30.17,10.0,ESE,5.8,-,N/A,,Overcast,120,2013-09-16 18:58:00
2:03 PM,73.4,71.6,94,30.17,10.0,SE,5.8,-,N/A,,Overcast,130,2013-09-16 19:03:00
2:28 PM,73.4,71.6,94,30.17,10.0,East,6.9,-,N/A,,Mostly Cloudy,100,2013-09-16 19:28:00
2:33 PM,73.4,71.6,94,30.16,10.0,Variable,5.8,-,N/A,,Mostly Cloudy,0,2013-09-16 19:33:00
2:38 PM,73.4,71.6,94,30.16,10.0,ESE,5.8,-,N/A,,Mostly Cloudy,120,2013-09-16 19:38:00
2:58 PM,75.0,70.9,87,30.14,10.0,SE,5.8,-,N/A,,Mostly Cloudy,140,2013-09-16 19:58:00
3:03 PM,75.2,71.6,89,30.15,10.0,SE,5.8,-,N/A,,Mostly Cloudy,140,2013-09-16 20:03:00
3:33 PM,75.2,71.6,89,30.15,10.0,SE,5.8,-,N/A,,Mostly Cloudy,140,2013-09-16 20:33:00
3:58 PM,76.1,70.7,83,30.12,10.0,Variable,4.6,-,N/A,,Mostly Cloudy,0,2013-09-16 20:58:00
4:23 PM,75.2,69.8,83,30.13,10.0,Variable,4.6,-,N/A,,Overcast,0,2013-09-16 21:23:00
4:38 PM,75.2,69.8,83,30.13,10.0,SSE,5.8,-,N/A,,Overcast,150,2013-09-16 21:38:00
4:58 PM,75.9,70.2,82,30.11,10.0,East,6.9,-,N/A,,Overcast,90,2013-09-16 21:58:00
5:08 PM,75.2,71.6,89,30.12,10.0,ENE,11.5,-,N/A,,Overcast,60,2013-09-16 22:08:00
5:58 PM,71.8,71.8,100,30.11,10.0,NNE,9.2,-,N/A,,Overcast,20,2013-09-16 22:58:00
5:59 PM,71.6,71.6,100,30.13,10.0,NNE,10.4,-,N/A,Rain,Light Rain,20,2013-09-16 22:59:00
6:04 PM,71.6,71.6,100,30.13,10.0,NNE,9.2,-,N/A,,Light Drizzle,20,2013-09-16 23:04:00
6:19 PM,69.8,69.8,100,30.13,10.0,NNE,8.1,-,N/A,Rain,Light Rain,30,2013-09-16 23:19:00
6:33 PM,69.8,69.8,100,30.13,10.0,North,6.9,-,N/A,,Overcast,10,2013-09-16 23:33:00
6:39 PM,69.8,69.8,100,30.13,10.0,North,4.6,-,N/A,,Light Drizzle,10,2013-09-16 23:39:00
6:48 PM,69.8,69.8,100,30.13,10.0,NW,5.8,-,N/A,,Overcast,320,2013-09-16 23:48:00
6:54 PM,69.8,69.8,100,30.13,10.0,Variable,4.6,-,N/A,,Overcast,0,2013-09-16 23:54:00
6:58 PM,69.4,69.4,100,30.12,10.0,North,6.9,-,0.00,,Overcast,360,2013-09-16 23:58:00
7:28 PM,69.8,69.8,100,30.13,10.0,NNE,5.8,-,N/A,,Overcast,30,2013-09-17 00:28:00
7:53 PM,68.0,68.0,100,30.13,9.0,NE,9.2,-,N/A,,Overcast,40,2013-09-17 00:53:00
7:58 PM,68.7,68.7,100,30.12,9.0,NE,8.1,-,N/A,,Overcast,40,2013-09-17 00:58:00
8:03 PM,68.0,68.0,100,30.13,10.0,ENE,9.2,-,N/A,,Overcast,60,2013-09-17 01:03:00
8:13 PM,68.0,68.0,100,30.13,8.0,NE,10.4,-,N/A,,Overcast,40,2013-09-17 01:13:00
8:18 PM,68.0,68.0,100,30.13,8.0,NE,9.2,-,N/A,,Overcast,40,2013-09-17 01:18:00
8:33 PM,68.0,68.0,100,30.14,8.0,ENE,8.1,-,N/A,,Overcast,60,2013-09-17 01:33:00
8:58 PM,68.5,68.5,100,30.14,8.0,NE,6.9,-,N/A,,Overcast,50,2013-09-17 01:58:00
9:28 PM,68.0,68.0,100,30.16,7.0,ENE,8.1,-,N/A,,Overcast,60,2013-09-17 02:28:00
9:38 PM,68.0,68.0,100,30.16,6.0,ENE,9.2,-,N/A,,Overcast,60,2013-09-17 02:38:00
9:58 PM,67.8,67.8,100,30.15,5.0,ENE,8.1,-,N/A,,Overcast,70,2013-09-17 02:58:00
10:08 PM,68.0,68.0,100,30.16,5.0,ENE,8.1,-,N/A,,Overcast,70,2013-09-17 03:08:00
10:28 PM,68.0,68.0,100,30.16,5.0,East,6.9,-,N/A,,Overcast,80,2013-09-17 03:28:00
10:33 PM,68.0,68.0,100,30.16,5.0,East,8.1,-,N/A,,Overcast,80,2013-09-17 03:33:00
10:43 PM,68.0,68.0,100,30.16,5.0,ENE,8.1,-,N/A,,Overcast,70,2013-09-17 03:43:00
10:48 PM,68.0,68.0,100,30.16,5.0,ENE,8.1,-,N/A,,Overcast,60,2013-09-17 03:48:00
10:58 PM,67.8,67.8,100,30.15,5.0,ENE,8.1,-,N/A,,Overcast,70,2013-09-17 03:58:00
11:08 PM,68.0,68.0,100,30.16,4.0,East,8.1,-,N/A,,Overcast,90,2013-09-17 04:08:00
11:13 PM,68.0,68.0,100,30.16,4.0,East,6.9,-,N/A,,Overcast,90,2013-09-17 04:13:00
11:14 PM,68.0,68.0,100,30.16,4.0,East,6.9,-,N/A,Rain,Light Rain,90,2013-09-17 04:14:00
11:19 PM,68.0,68.0,100,30.16,3.0,East,6.9,-,N/A,Rain,Light Rain,80,2013-09-17 04:19:00
11:28 PM,68.0,68.0,100,30.16,3.0,East,6.9,-,N/A,,Overcast,90,2013-09-17 04:28:00
11:33 PM,68.0,68.0,100,30.16,3.0,East,5.8,-,N/A,,Overcast,80,2013-09-17 04:33:00
11:38 PM,68.0,68.0,100,30.16,2.5,East,8.1,-,N/A,,Overcast,80,2013-09-17 04:38:00
11:43 PM,68.0,68.0,100,30.16,2.0,ENE,8.1,-,N/A,,Overcast,70,2013-09-17 04:43:00
11:46 PM,68.0,68.0,100,30.16,2.0,East,8.1,-,N/A,Rain,Light Rain,80,2013-09-17 04:46:00
11:58 PM,67.5,67.5,100,30.14,2.0,East,5.8,-,0.01,Rain,Light Rain,80,2013-09-17 04:58:00